Location: Clanezzo
(45.7500°N, 9.6000°E)
Time: 07:35:02
(UTC+00:00)

AO-92 - Pass Details

Date: 07 July 2022
Orbit: 469 x 481 km, 97.4° (Epoch: 09 August)

Event Time Altitude Azimuth Distance (km) Brightness Sun altitude
Exits shadow 20:08:57 - 103° (ESE) 1,848 ? -8.3°
Reaches altitude 10° 20:09:44 10° 93° (E) 1,662 ? -8.4°
Maximum altitude 20:11:30 13° 63° (ENE) 1,468 ? -8.7°
Drops below altitude 10° 20:13:17 10° 33° (NNE) 1,672 ? -8.9°
Sets 20:16:13 0° 7° (N) 2,561 ? -9.2°
